This is the latest recevied weather packets stored in our database for station/object AD7ZD. If no packets are shown the sender has not sent any weather packets the latest 10 day(s).
| Time | Temp. | Humidity | Pressure | Rain* | Wind** | Luminosity | Snow |
|---|---|---|---|---|---|---|---|
| 1777452549 | 7.22° C | 53% | 1017.2 hPa | 0 mm | - | 0 W/m² | - |
| 1777452249 | 7.22° C | 53% | 1017.4 hPa | 0 mm | - | 0 W/m² | - |
| 1777451949 | 7.22° C | 53% | 1017.5 hPa | 0 mm | - | 0 W/m² | - |
| 1777451646 | 7.22° C | 53% | 1017.2 hPa | 0 mm | - | 0 W/m² | - |
| 1777451341 | 7.22° C | 52% | 1017.5 hPa | 0 mm | - | 0 W/m² | - |
| 1777451037 | 7.22° C | 52% | 1017.2 hPa | 0 mm | - | 0 W/m² | - |
| 1777450733 | 7.22° C | 53% | 1017.4 hPa | 0 mm | - | 0 W/m² | - |
| 1777450428 | 6.67° C | 53% | 1017.4 hPa | 0 mm | - | 0 W/m² | - |
| 1777450125 | 6.67° C | 53% | 1017.5 hPa | 0 mm | - | 0 W/m² | - |
| 1777449822 | 6.67° C | 54% | 1017.4 hPa | 0 mm | - | 0 W/m² | - |
| 1777449518 | 6.67° C | 58% | 1017.5 hPa | 0 mm | - | 0 W/m² | - |
| 1777449213 | 6.11° C | 59% | 1017.4 hPa | 0 mm | - | 0 W/m² | - |
| 1777448909 | 6.67° C | 59% | 1017.5 hPa | 0 mm | - | 0 W/m² | - |
| 1777448607 | 6.67° C | 59% | 1017.4 hPa | 0 mm | - | 0 W/m² | - |
| 1777448304 | 6.67° C | 57% | 1017.5 hPa | 0 mm | - | 0 W/m² | - |
| 1777448000 | 7.22° C | 54% | 1017.5 hPa | 0 mm | - | 0 W/m² | - |
| 1777447695 | 7.22° C | 55% | 1017.5 hPa | 0 mm | - | 0 W/m² | - |
| 1777447392 | 7.78° C | 53% | 1017.5 hPa | 0 mm | - | 0 W/m² | - |
| 1777447089 | 8.33° C | 49% | 1017.6 hPa | 0 mm | - | 0 W/m² | - |
| 1777446787 | 8.33° C | 49% | 1017.5 hPa | 0 mm | - | 0 W/m² | - |
| 1777446482 | 8.33° C | 50% | 1017.1 hPa | 0 mm | - | 0 W/m² | - |
| 1777446179 | 8.33° C | 49% | 1017.2 hPa | 0 mm | - | 0 W/m² | - |
| 1777445876 | 8.89° C | 49% | 1017.4 hPa | 0 mm | - | 0 W/m² | - |
| 1777445572 | 8.89° C | 49% | 1017.2 hPa | 0 mm | - | 0 W/m² | - |
| 1777445269 | 8.89° C | 48% | 1017.2 hPa | 0 mm | - | 0 W/m² | - |
* Rain latest hour (hover to see other rain measurements)
** Current wind speed in m/s (hover to see current wind gust speed)